Regional Weather Roundup
Issued by NWS

Home | Current Version | Previous Version | Graphics & Text | Print | Product List | Glossary On
Versions: 1 2 3 4 5 6 7 8 9 10 11 12 13 14 15 16 17 18 19 20 21 22 23 24 25 26 27 28 29 30 31 32 33 34 35 36 37 38 39 40 41 42 43 44 45 46 47 48 49 50
000
ASUS43 KLMK 210410
RWRKY
KENTUCKY REGIONAL WEATHER ROUNDUP
NATIONAL WEATHER SERVICE LOUISVILLE KY
1200 AM EDT MON AUG 21 2017

NOTE "FAIR" INDICATES FEW OR NO CLOUDS BELOW 12,000 FEET
WITH NO SIGNIFICANT WEATHER AND/OR OBSTRUCTIONS TO VISIBILITY.

KYZ001>023-026-027-061>063-070>075-210500-
WESTERN AND SOUTH CENTRAL KENTUCKY

CITY           SKY/WX    TMP DP  RH WIND       PRES   REMARKS
PADUCAH        MOCLDY    71  68  90 SE3       30.09R
HENDERSON      PTCLDY    73  69  87 S5        30.09S
OWENSBORO      CLEAR     76  71  85 CALM      30.11R
HOPKINSVILLE   CLEAR     76  70  83 CALM      30.12R
BOWLING GREEN  CLEAR     75  71  87 CALM      30.13R
GLASGOW        PTCLDY    71  71 100 CALM      30.14R
$$

KYZ024-025-028>034-038-045-046-053-210500-
NORTH CENTRAL KENTUCKY

CITY           SKY/WX    TMP DP  RH WIND       PRES   REMARKS
LOUISVILLE/SDF PTCLDY    82  68  62 S5        30.10R
LOUISVILLE/LOU CLEAR     79  70  74 S3        30.11R
FORT KNOX      CLEAR     73  69  87 CALM      30.11S
$$

KYZ035>037-039>044-047>052-055>060-089>105-210500-
NORTHEAST KENTUCKY

CITY           SKY/WX    TMP DP  RH WIND       PRES   REMARKS
LEXINGTON      MOCLDY    77  67  71 S5        30.14R
COVINGTON      PTCLDY    76  69  79 S5        30.12R
FRANKFORT      MOCLDY    75  67  76 CALM      30.12R
$$

KYZ054-064>069-076>088-106>120-210500-
SOUTHEAST KENTUCKY

CITY           SKY/WX    TMP DP  RH WIND       PRES   REMARKS
JACKSON        CLEAR     74  64  71 S3        30.18R
LONDON         CLEAR     69  67  93 CALM      30.17S
SOMERSET       CLOUDY    68  68 100 CALM      30.16S
MIDDLESBORO    CLEAR     70  69  97 CALM      30.20R
MONTICELLO     CLEAR     66  66 100 W7        30.18R
$$





USA.gov is the U.S. government's official web portal to all federal, state and local government web resources and services.